CYKACYLW

Guest
Details From CYKA - Kamloops
To CYLW - Kelowna
Flight Number -
Tags Generated
Created
Modified
Stats Distance 60 nm / 111 km
Max Altitude 0 ft / 0 m
Waypoints 2
Social Downloads 0
Likes 0
Share VATSIM

Download

Looking for another format? Having issues loading an existing format? Contact us
Advertisement - Login to hide

Notes

Generated

Route

CYKA CYLW

ID Type Via Altitude Latitude Longitude Leg Dist Tot Dist Heading (true) Name
O CYKA APT - 0 ft / 0 m 50.69946˚ -120.44626˚ - 0 nm - -
O CYLW APT - 0 ft / 0 m 49.96608˚ -119.37914˚ 60 nm 60 nm 137° / 138° -

Altitude Profile

Advertisement - Login to hide

CYKA

Details ICAO CYKA (YKA)
Name Kamloops
Region Canada
Timezone America/Vancouver (UTC-7.0)
Stats Elevation 1,133 ft / 345 m (AMSL)
Location 50.701875° -120.442709°
Runways 2
Magnetic Variation 16.008° E

METAR

CYKA 261600Z 28011KT 40SM FEW080 FEW250 17/04 A2995 RMK AC1CI2 AC TR SLP142 DENSITY ALT 1600FT

Decode

TAF

TAF CYKA 261238Z 2613/2701 VRB03KT P6SM BKN090 BECMG 2618/2620 12008KT RMK NXT FCST BY 261900Z

Decode

Departure Runways

ID Width Length Bearing (true) Bearing (mag) Surface Threshold Offset Overrun Length
04 49 ft / 15 m 2,815 ft / 858 m 61.02° 45.01° Asphalt 686 ft / 209 m 0 ft / 0 m
08 148 ft / 45 m 5,999 ft / 1,828 m 103.28° 87.27° Asphalt 0 ft / 0 m 0 ft / 0 m
22 49 ft / 15 m 2,815 ft / 858 m 241.03° 225.02° Asphalt 0 ft / 0 m 0 ft / 0 m
26 148 ft / 45 m 5,999 ft / 1,828 m 283.30° 267.29° Asphalt 0 ft / 0 m 0 ft / 0 m

CYLW

Details ICAO CYLW (YLW)
Name Kelowna
Region Canada
Timezone America/Vancouver (UTC-7.0)
Stats Elevation 1,409 ft / 429 m (AMSL)
Location 49.956117° -119.377757°
Runways 1
Magnetic Variation 15.565° E

METAR

CYLW 261600Z AUTO 17007KT 9SM CLR 17/04 A2995 RMK SLP139 DENSITY ALT 1900FT

Decode

TAF

TAF CYLW 261238Z 2613/2701 15008KT P6SM FEW200 BECMG 2619/2621 22012KT RMK FCST BASED ON AUTO OBS. NXT FCST BY 261900Z

Decode

Destination Runways

ID Width Length Bearing (true) Bearing (mag) Surface Threshold Offset Overrun Length
16 200 ft / 61 m 7,299 ft / 2,225 m 174.89° 159.33° Asphalt 0 ft / 0 m 0 ft / 0 m
34 200 ft / 61 m 7,299 ft / 2,225 m 354.89° 339.33° Asphalt 0 ft / 0 m 0 ft / 0 m

Approach Navaids

Runway Type Ident Frequency Range Bearing (true) Bearing (mag) Slope Elevation
16 Localiser ILW 111.30 MHz 18 nm / 33 km 174.87° 159.31° - 1,049 ft / 320 m (AMSL)
16 Glidescope ILW 111.30 MHz 10 nm / 19 km 174.89° 159.32° 3.20° 1,409 ft / 429 m (AMSL)
16 DME ILW 111.30 MHz 18 nm / 33 km - - - 1,409 ft / 429 m (AMSL)

Popular Alternatives